Location: Melizzano
(41.1500°N, 14.5000°E)
Time: 08:00:51
(UTC+00:00)

Meteor 1-14 Rocket - Pass Details

Date: 11 May 2021
Orbit: 833 x 919 km, 81.3° (Epoch: 20 June)

Event Time Altitude Azimuth Distance (km) Brightness Sun altitude
Rises 19:52:59 0° 352° (N) 3,529 8.3 -16.8°
Reaches altitude 10° 19:55:29 10° 354° (N) 2,573 7.4 -17.2°
Maximum altitude 20:01:20 74° 79° (E) 917 4.2 -17.9°
Enters shadow 20:04:24 29° 159° (SSE) 1,550 5.0 -18.3°
